Regional Weather Roundup
Issued by NWS

Home | Current Version | Previous Version | Text Only | Print | Product List | Glossary On
Versions: 1 2 3 4 5 6 7 8 9 10 11 12 13 14 15 16 17 18 19 20 21 22 23 24 25 26 27 28 29 30 31 32 33 34 35 36 37 38 39 40 41 42 43 44 45 46 47 48 49 50
000
ASUS44 KEWX 281002
RWRTX
SOUTH TEXAS REGIONAL WEATHER ROUNDUP
NATIONAL WEATHER SERVICE AUSTIN/SAN ANTONIO TX
400 AM CST WED JAN 28 2015

NOTE: "FAIR" INDICATED FEW OR NO CLOUDS BELOW 12,000 FEET WITH NO
SIGNIFICANT WEATHER AND/OR OBSTRUCTIONS TO VISIBILITY.

* - THESE STATIONS ARE NOT NWS OR FAA STATIONS...AND ARE NOT SUBJECT
    TO NWS AND FAA QUALITY CONTROL.

TXZ171-172-183>190-281100-
TEXAS HILL COUNTRY AND EDWARDS PLATEAU

CITY           SKY/WX    TMP DP  RH WIND       PRES   REMARKS
JUNCTION       CLEAR     38  34  85 W5        30.13F WCI  34
*LLANO         CLEAR     39  36  87 CALM      30.17S
BURNET         CLEAR     46  39  76 CALM      30.15F
*HORSESHOE BAY CLEAR     42  37  83 S5        30.13F WCI  39
*KERRVILLE     CLEAR     40  37  90 CALM      30.15F
*FREDERICKSBRG CLEAR     41  35  80 CALM      30.14F
*ROCKSPRINGS   CLEAR     55  34  44 SE3       30.17S
*BOERNE STAGE  CLEAR     39  34  81 CALM      30.15F
*CASTROVILLE   CLEAR     45  38  78 NW9       30.15F WCI  40
HONDO          CLEAR     42  37  82 N7        30.15F WCI  38
*UVALDE        CLEAR     48  39  72 CALM      30.14S
DEL RIO        PTCLDY    55  37  50 NE7       30.09F
LAUGHLIN AFB   PTCLDY    48  39  71 E5        30.11F WCI  46
CARRIZO SPRGS  CLEAR     45  41  87 CALM      30.12S
$$

TXZ173-191>194-202-209-217>225-228-281100-
CENTRAL AND SOUTH CENTRAL TEXAS

CITY           SKY/WX    TMP DP  RH WIND       PRES   REMARKS
GEORGETOWN     CLEAR     45  39  81 CALM      30.12F
AUSTIN/BERGSTM CLEAR     39  39 100 CALM      30.13F
AUSTIN/MABRY   CLEAR     46  42  86 CALM      30.14S
*AUSTIN/EXEC   CLEAR     50  43  76 SW3       30.13F
*LAGO VISTA    CLEAR     59  38  45 SW7       30.13F
SAN MARCOS     CLEAR     43  37  81 NW3       30.13F
NEW BRAUNFELS  CLEAR     45  40  82 NW6       30.12F WCI  42
RANDOLPH AFB   CLEAR     44  38  79 NW8       30.13F WCI  40
PT SAN ANTONIO CLEAR     42  38  86 NW3       30.11F
SAN ANTONIO    CLEAR     46  38  73 W6        30.13F WCI  43
STINSON FIELD  CLEAR     46  41  82 CALM      30.12S
*PLEASANTON    CLEAR     42  39  89 CALM      30.14F
*LA GRANGE     CLEAR     46  44  90 CALM      30.12F
*GIDDINGS      CLEAR     46  42  88 CALM      30.16F
*GONZALES      CLEAR     51  42  69 CALM      30.13F
$$

TXZ163>164-176>182-195>201-210>213-226-227-235-281100-
SOUTHEAST TEXAS

CITY           SKY/WX    TMP DP  RH WIND       PRES   REMARKS
COLLEGE STN    CLEAR     46  41  82 CALM      30.13S
*BRYAN         CLEAR     47  44  88 CALM      30.15R
*CALDWELL      CLEAR     52  43  71 CALM      30.16S
*CROCKETT      CLEAR     46  45  93 CALM      30.17S
*BRENHAM       CLEAR     47  45  90 CALM      30.14S
HUNTSVILLE     CLEAR     54  45  71 S3        30.13S
CONROE         CLEAR     41  39  93 CALM      30.16R
HOUSTON BUSH   PTCLDY    46  45  96 CALM      30.15R
HOUSTON HOBBY  CLEAR     49  48  97 CALM      30.15R
*HOUSTON SW AP CLEAR     46  46  99 CALM      30.16R
PEARLAND       CLEAR     49  45  86 CALM      30.17R
HOUSTON HOOKS  CLEAR     46  44  93 CALM      30.15R
ELLINGTON FLD  PTCLDY    55  48  76 CALM      30.15
SUGAR LAND     CLEAR     48  45  89 SE3       30.14S
*HOUSTON EXEC    N/A    N/A N/A N/A MISG        N/A
*CLEVELAND MUN CLEAR     41  41 100 CALM      30.16S
*WHARTON       CLEAR     52  46  79 CALM      30.15F
*COLUMBUS      FAIR      45  43  93 CALM      30.14S
$$

TXZ214>216-236>238-281100-
THE UPPER TEXAS COAST

CITY           SKY/WX    TMP DP  RH WIND       PRES   REMARKS
*ORANGE        CLEAR     43  43 100 CALM      30.17F
PORT ARTHUR    CLEAR     47  44  90 CALM      30.15F
GALVESTON      CLEAR     51  51 100 SW3       30.16S
ANGLETON       CLEAR     47  47 100 CALM      30.15S
*BAY CITY      CLEAR     49  49  97 CALM      30.15S FOG
PALACIOS       CLEAR     54  50  86 SW3       30.14F
$$

TXZ229>234-239>247-281100-
TEXAS COASTAL BEND AND RIO GRANDE PLAINS

CITY           SKY/WX    TMP DP  RH WIND       PRES   REMARKS
VICTORIA       CLEAR     53  44  71 SW5       30.14F
*BEEVILLE      CLEAR     55  39  56 SW3       30.13S
ROCKPORT       CLEAR     50  44  80 W3        30.14S
*PORT ARANSAS  CLEAR     53  49  85 CALM      30.14S
*PORT LAVACA   CLEAR     49  47  92 W6        30.15S WCI  46
*INGLESIDE     CLEAR     57  47  67 SW6       30.14S
CORPUS CHRISTI CLEAR     47  44  90 VRB5      30.14S WCI  45
CORPUS NAS     CLEAR     52  48  86 SW6       30.14S
*ROBSTOWN      NOT AVBL
ALICE          CLEAR     49  39  68 SW3       30.13S
KINGSVILLE NAS   N/A     50  45  83 SW3       30.14S
COTULLA        CLEAR     51  42  71 SE3       30.13S
*FAITH RANCH   CLEAR     50  39  66 SE5       30.12F WCI  48
LAREDO         NOT AVBL
$$

TXZ248>255-281100-
DEEP SOUTH TEXAS

CITY           SKY/WX    TMP DP  RH WIND       PRES   REMARKS
BROWNSVILLE    FOG       52  52 100 S5        30.15F VSB 1/4
PORT ISABEL    FOG       55  54  96 S6        30.14F VSB 3/4
*SOUTH PADRE   CLEAR    N/A N/A N/A CALM      30.15S
HARLINGEN      FOG       56  56 100 S8        30.14S VSB 1/4
*HEBBRONVILLE  CLEAR     53  38  55 S5        30.14S
MCALLEN        CLEAR     52  51  97 SE6       30.14F
*WESLACO       CLEAR     57  55  92 S7        30.15S
FALFURRIAS     CLEAR     48  40  74 CALM      30.13F
EDINBURG       FOG       53  51  92 CALM      30.15S VSB 1/4
*ZAPATA        NOT AVBL
$$

TXZ213>215-236>238-242>244-246-247-251-254-255-281100-
CMAN STATIONS

STATION/POSITION TIME  TEMP    WIND        PRES    WAVE
                       AIR SEA DIR/SP/G            HT/PER
                 (UTC) (F)     (DEG/KT/KT) (MB)    (FT/S)
SABINE PASS      0900   54 54  100/  3/  3 1021.2
SEA RIM ST PARK  0900   55     110/  3/  3 1021.8
NORTH JETTY/GLS  0900   58 57  170/  2/  3   N/A
EAGLE POINT      0900   56 57     CALM     1020.8
MORGANS POINT    0900   54     100/  2/  2 1020.7
MISSION/ARANSAS  0900   58     VRB  5      1021.0
PORT O`CONNOR    0900          230/  7/  7   N/A
PORT ARANSAS     0900   59 59  220/  5/  5 1021.3
MALAQUITE BEACH  0900   57 61  200/  3/  5 1020.0
BAFFIN BAY       0900   56     190/  4/  6 1020.4
PORT ISABEL      0900   57 59  180/  4/  5 1021.0
$$

GMZ080-GMZ150>470-281100-
OFFSHORE BUOY REPORTS

STATION/POSITION TIME  TEMP    WIND        PRES    WAVE
                       AIR SEA DIR/SP/G            HT/PER
                 (UTC) (F)     (DEG/KT/KT) (MB)    (FT/S)
20 E GALVESTON   1000   56 56  110/  4/  4 1020.7    1/ 5
90 E PT ARANSAS  1000   68 68  230/ 10/ 10 1021.2    1/ 3
35 NE PT MANSFLD 1000   66 67  200/ 12/ 12 1020.5    2/ 3
200 E PT ISABEL  1000   70 72  270/  6/  8 1021.5    2/ 5
$$


USA.gov is the U.S. government's official web portal to all federal, state and local government web resources and services.